�N����,�����b,���ԉ��x,���Ԏ��x,��󒲎�,����,�����W
2003/9/1,0:05:00,23.9 ,78.0 ,23.1 ,19.4 ,24.2 
2003/9/1,0:20:00,23.8 ,78.0 ,23.1 ,19.4 ,24.2 
2003/9/1,0:35:00,23.8 ,77.9 ,23.1 ,19.4 ,24.1 
2003/9/1,0:50:00,23.8 ,77.8 ,23.1 ,19.5 ,24.1 
2003/9/1,1:05:00,23.7 ,77.7 ,23.1 ,19.5 ,24.1 
2003/9/1,1:20:00,23.7 ,77.7 ,23.1 ,19.5 ,24.1 
2003/9/1,1:35:00,23.7 ,77.7 ,23.0 ,19.5 ,24.0 
2003/9/1,1:50:00,23.7 ,77.7 ,23.0 ,19.5 ,23.9 
2003/9/1,2:05:00,23.6 ,77.6 ,23.0 ,19.5 ,23.9 
2003/9/1,2:20:00,23.6 ,77.6 ,23.0 ,19.5 ,23.9 
2003/9/1,2:35:00,23.6 ,77.6 ,23.0 ,19.5 ,23.9 
2003/9/1,2:50:00,23.6 ,77.6 ,23.0 ,19.6 ,23.9 
2003/9/1,3:05:00,23.6 ,77.7 ,23.0 ,19.6 ,23.8 
2003/9/1,3:20:00,23.5 ,77.6 ,23.0 ,19.6 ,23.7 
2003/9/1,3:35:00,23.5 ,77.6 ,23.0 ,19.6 ,23.7 
2003/9/1,3:50:00,23.5 ,77.6 ,23.0 ,19.6 ,23.7 
2003/9/1,4:05:00,23.5 ,77.6 ,23.0 ,19.6 ,23.7 
2003/9/1,4:20:00,23.4 ,77.6 ,23.0 ,19.6 ,23.6 
2003/9/1,4:35:00,23.4 ,77.6 ,22.9 ,19.6 ,23.6 
2003/9/1,4:50:00,23.4 ,77.6 ,22.9 ,19.6 ,23.6 
2003/9/1,5:05:00,23.4 ,77.7 ,22.9 ,19.6 ,23.6 
2003/9/1,5:20:00,23.4 ,77.6 ,22.9 ,19.7 ,23.6 
2003/9/1,5:35:00,23.4 ,77.7 ,22.9 ,19.7 ,23.5 
2003/9/1,5:50:00,23.4 ,77.8 ,22.9 ,19.7 ,23.5 
2003/9/1,6:05:00,23.4 ,77.7 ,22.9 ,19.7 ,23.5 
2003/9/1,6:20:00,23.4 ,77.7 ,22.9 ,19.7 ,23.5 
2003/9/1,6:35:00,23.4 ,77.7 ,22.9 ,19.7 ,23.6 
2003/9/1,6:50:00,23.4 ,77.7 ,22.9 ,19.7 ,23.6 
2003/9/1,7:05:00,23.4 ,77.7 ,22.9 ,19.7 ,23.6 
2003/9/1,7:20:00,23.4 ,77.8 ,22.9 ,19.7 ,23.6 
2003/9/1,7:35:00,23.4 ,77.8 ,22.8 ,19.7 ,23.6 
2003/9/1,7:50:00,23.4 ,77.9 ,22.9 ,19.7 ,23.6 
2003/9/1,8:05:00,23.5 ,78.0 ,22.9 ,19.2 ,23.7 
2003/9/1,8:20:00,23.6 ,77.8 ,22.9 ,19.2 ,23.7 
2003/9/1,8:35:00,23.6 ,78.1 ,22.9 ,19.3 ,23.8 
2003/9/1,8:50:00,23.6 ,78.1 ,22.9 ,19.3 ,23.8 
2003/9/1,9:05:00,23.7 ,78.1 ,22.9 ,19.3 ,23.8 
2003/9/1,9:20:00,23.7 ,78.5 ,22.9 ,19.3 ,23.8 
2003/9/1,9:35:00,23.8 ,77.9 ,22.9 ,19.3 ,23.9 
2003/9/1,9:50:00,24.0 ,77.6 ,23.0 ,19.3 ,24.0 
2003/9/1,10:05:00,23.9 ,77.7 ,23.0 ,19.3 ,24.0 
2003/9/1,10:20:00,24.0 ,77.7 ,23.0 ,19.4 ,24.1 
2003/9/1,10:35:00,24.0 ,77.6 ,23.0 ,19.4 ,24.1 
2003/9/1,10:50:00,24.2 ,77.1 ,23.0 ,19.1 ,24.2 
2003/9/1,11:05:00,24.3 ,77.0 ,23.1 ,19.1 ,24.3 
2003/9/1,11:20:00,24.3 ,76.9 ,23.1 ,19.1 ,24.4 
2003/9/1,11:35:00,24.2 ,77.1 ,23.1 ,19.1 ,24.4 
2003/9/1,11:50:00,24.3 ,77.2 ,23.2 ,19.1 ,24.4 
2003/9/1,12:05:00,24.2 ,77.3 ,23.2 ,19.2 ,24.4 
2003/9/1,12:20:00,24.2 ,77.0 ,23.2 ,19.2 ,24.4 
2003/9/1,12:35:00,24.2 ,77.1 ,23.2 ,19.2 ,24.4 
2003/9/1,12:50:00,24.3 ,77.1 ,23.2 ,19.2 ,24.4 
2003/9/1,13:05:00,24.3 ,77.2 ,23.3 ,19.2 ,24.4 
2003/9/1,13:20:00,24.3 ,77.1 ,23.3 ,19.2 ,24.4 
2003/9/1,13:35:00,24.3 ,77.1 ,23.3 ,19.3 ,24.4 
2003/9/1,13:50:00,24.3 ,77.3 ,23.3 ,19.3 ,24.5 
2003/9/1,14:05:00,24.3 ,77.3 ,23.3 ,19.3 ,24.5 
2003/9/1,14:20:00,24.3 ,78.5 ,23.4 ,19.3 ,24.5 
2003/9/1,14:35:00,24.4 ,78.5 ,23.4 ,19.1 ,24.5 
2003/9/1,14:50:00,24.4 ,78.1 ,23.4 ,19.1 ,24.5 
2003/9/1,15:05:00,24.3 ,78.2 ,23.4 ,19.1 ,24.5 
2003/9/1,15:20:00,24.3 ,78.5 ,23.4 ,19.1 ,24.5 
2003/9/1,15:35:00,24.4 ,78.4 ,23.5 ,19.1 ,24.5 
2003/9/1,15:50:00,24.4 ,79.0 ,23.5 ,19.1 ,24.5 
2003/9/1,16:05:00,24.4 ,79.5 ,23.5 ,19.0 ,24.5 
2003/9/1,16:20:00,24.2 ,83.4 ,23.5 ,19.0 ,24.5 
2003/9/1,16:35:00,24.3 ,81.9 ,23.5 ,19.0 ,24.5 
2003/9/1,16:50:00,24.3 ,81.4 ,23.6 ,19.1 ,24.5 
2003/9/1,17:05:00,24.3 ,81.5 ,23.6 ,19.1 ,24.5 
2003/9/1,17:20:00,24.3 ,81.1 ,23.6 ,19.1 ,24.5 
2003/9/1,17:35:00,24.4 ,80.7 ,23.6 ,19.1 ,24.5 
2003/9/1,17:50:00,24.4 ,81.2 ,23.6 ,19.3 ,24.5 
2003/9/1,18:05:00,24.4 ,81.0 ,23.6 ,19.2 ,24.6 
2003/9/1,18:20:00,24.5 ,81.0 ,23.6 ,19.2 ,24.6 
2003/9/1,18:35:00,24.4 ,81.0 ,23.6 ,19.2 ,24.5 
2003/9/1,18:50:00,24.4 ,81.3 ,23.6 ,19.3 ,24.5 
2003/9/1,19:05:00,24.4 ,81.3 ,23.6 ,19.3 ,24.8 
2003/9/1,19:20:00,24.4 ,81.4 ,23.6 ,19.4 ,26.8 
2003/9/1,19:35:00,24.4 ,81.3 ,23.6 ,19.4 ,27.8 
2003/9/1,19:50:00,24.4 ,81.0 ,23.6 ,19.4 ,27.1 
2003/9/1,20:05:00,24.5 ,80.8 ,23.6 ,19.4 ,26.5 
2003/9/1,20:20:00,24.6 ,80.6 ,23.6 ,19.5 ,26.0 
2003/9/1,20:35:00,24.5 ,80.5 ,23.6 ,19.5 ,25.7 
2003/9/1,20:50:00,24.5 ,80.5 ,23.6 ,19.5 ,25.5 
2003/9/1,21:05:00,24.4 ,80.0 ,23.6 ,19.5 ,25.3 
2003/9/1,21:20:00,24.3 ,80.2 ,23.6 ,19.5 ,25.1 
2003/9/1,21:35:00,24.3 ,80.4 ,23.6 ,19.5 ,25.0 
2003/9/1,21:50:00,24.3 ,80.3 ,23.6 ,19.6 ,25.0 
2003/9/1,22:05:00,24.4 ,80.1 ,23.6 ,19.4 ,25.0 
2003/9/1,22:20:00,24.3 ,80.3 ,23.5 ,19.4 ,25.0 
2003/9/1,22:35:00,24.3 ,80.1 ,23.5 ,19.4 ,24.9 
2003/9/1,22:50:00,24.4 ,80.2 ,23.5 ,19.5 ,24.9 
2003/9/1,23:05:00,24.4 ,80.7 ,23.5 ,19.5 ,24.9 
2003/9/1,23:20:00,24.4 ,80.7 ,23.5 ,19.5 ,24.9 
2003/9/1,23:35:00,24.3 ,81.0 ,23.5 ,19.5 ,24.8 
2003/9/1,23:50:00,24.3 ,80.9 ,23.5 ,19.5 ,24.8 
2003/9/2,0:05:00,24.3 ,80.6 ,23.5 ,19.5 ,24.7 
2003/9/2,0:20:00,24.3 ,80.5 ,23.5 ,19.4 ,24.7 
2003/9/2,0:35:00,24.3 ,80.6 ,23.5 ,19.5 ,24.7 
2003/9/2,0:50:00,24.3 ,80.7 ,23.5 ,19.5 ,24.7 
2003/9/2,1:05:00,24.3 ,80.6 ,23.5 ,19.5 ,24.7 
2003/9/2,1:20:00,24.2 ,80.6 ,23.5 ,19.5 ,24.6 
2003/9/2,1:35:00,24.2 ,80.5 ,23.5 ,19.5 ,24.6 
2003/9/2,1:50:00,24.2 ,80.5 ,23.5 ,19.5 ,24.6 
2003/9/2,2:05:00,24.2 ,80.4 ,23.5 ,19.5 ,24.6 
2003/9/2,2:20:00,24.2 ,80.4 ,23.5 ,19.5 ,24.5 
2003/9/2,2:35:00,24.2 ,80.4 ,23.5 ,19.6 ,24.5 
2003/9/2,2:50:00,24.2 ,80.4 ,23.5 ,19.6 ,24.5 
2003/9/2,3:05:00,24.2 ,80.3 ,23.5 ,19.6 ,24.5 
2003/9/2,3:20:00,24.1 ,80.3 ,23.5 ,19.6 ,24.4 
2003/9/2,3:35:00,24.1 ,80.2 ,23.5 ,19.8 ,24.4 
2003/9/2,3:50:00,24.1 ,80.2 ,23.5 ,19.7 ,24.4 
2003/9/2,4:05:00,24.1 ,80.2 ,23.5 ,19.7 ,24.4 
2003/9/2,4:20:00,24.1 ,80.3 ,23.5 ,19.7 ,24.3 
2003/9/2,4:35:00,24.1 ,80.2 ,23.4 ,19.8 ,24.4 
2003/9/2,4:50:00,24.1 ,80.2 ,23.4 ,19.8 ,24.4 
2003/9/2,5:05:00,24.1 ,80.2 ,23.4 ,19.9 ,24.4 
2003/9/2,5:20:00,24.1 ,80.2 ,23.4 ,20.1 ,24.3 
2003/9/2,5:35:00,24.1 ,80.3 ,23.4 ,20.4 ,24.3 
2003/9/2,5:50:00,24.1 ,80.2 ,23.4 ,20.4 ,24.3 
2003/9/2,6:05:00,24.0 ,80.3 ,23.4 ,20.5 ,24.3 
2003/9/2,6:20:00,24.1 ,80.1 ,23.4 ,20.2 ,24.4 
2003/9/2,6:35:00,24.1 ,80.0 ,23.4 ,20.1 ,24.4 
2003/9/2,6:50:00,24.1 ,80.1 ,23.4 ,20.1 ,24.4 
2003/9/2,7:05:00,24.1 ,80.2 ,23.4 ,20.1 ,24.4 
2003/9/2,7:20:00,24.1 ,80.3 ,23.4 ,20.2 ,24.4 
2003/9/2,7:35:00,24.2 ,80.7 ,23.4 ,20.3 ,24.4 
2003/9/2,7:50:00,24.2 ,80.5 ,23.4 ,20.4 ,24.4 
2003/9/2,8:05:00,24.3 ,80.4 ,23.5 ,20.3 ,24.5 
2003/9/2,8:20:00,24.4 ,79.8 ,23.5 ,19.8 ,24.6 
2003/9/2,8:35:00,24.5 ,79.7 ,23.5 ,20.2 ,24.7 
2003/9/2,8:50:00,24.7 ,82.1 ,23.6 ,20.1 ,24.8 
2003/9/2,9:05:00,25.1 ,80.2 ,23.6 ,20.2 ,24.9 
2003/9/2,9:20:00,25.4 ,80.6 ,23.6 ,20.3 ,25.4 
2003/9/2,9:35:00,25.7 ,80.9 ,23.7 ,20.3 ,25.6 
2003/9/2,9:50:00,25.9 ,80.8 ,23.7 ,20.3 ,25.8 
2003/9/2,10:05:00,26.0 ,80.0 ,23.8 ,20.5 ,25.9 
2003/9/2,10:20:00,26.1 ,80.7 ,23.9 ,20.3 ,26.1 
2003/9/2,10:35:00,26.2 ,80.1 ,24.0 ,20.4 ,26.2 
2003/9/2,10:50:00,26.2 ,79.1 ,24.0 ,20.4 ,26.3 
2003/9/2,11:05:00,26.2 ,79.3 ,24.1 ,20.4 ,26.3 
2003/9/2,11:20:00,26.3 ,79.2 ,24.1 ,20.6 ,26.4 
2003/9/2,11:35:00,26.4 ,78.6 ,24.2 ,20.7 ,26.5 
2003/9/2,11:50:00,26.5 ,78.7 ,24.3 ,20.8 ,26.5 
2003/9/2,12:05:00,26.5 ,78.4 ,24.3 ,20.8 ,26.6 
2003/9/2,12:20:00,26.7 ,78.3 ,24.4 ,20.7 ,26.7 
2003/9/2,12:35:00,26.8 ,78.1 ,24.4 ,20.8 ,26.8 
2003/9/2,12:50:00,26.8 ,78.3 ,24.5 ,20.8 ,26.9 
2003/9/2,13:05:00,26.9 ,78.1 ,24.6 ,20.9 ,26.9 
2003/9/2,13:20:00,27.1 ,78.4 ,24.6 ,20.9 ,27.1 
2003/9/2,13:35:00,27.1 ,77.9 ,24.7 ,21.0 ,27.1 
2003/9/2,13:50:00,27.2 ,77.9 ,24.8 ,21.0 ,27.2 
2003/9/2,14:05:00,27.3 ,78.4 ,24.9 ,21.0 ,27.3 
2003/9/2,14:20:00,27.3 ,78.0 ,24.9 ,21.0 ,27.4 
2003/9/2,14:35:00,27.3 ,78.2 ,25.0 ,21.1 ,27.4 
2003/9/2,14:50:00,27.4 ,78.6 ,25.0 ,20.7 ,27.4 
2003/9/2,15:05:00,27.7 ,79.1 ,25.1 ,20.9 ,27.6 
2003/9/2,15:20:00,27.8 ,78.6 ,25.1 ,20.8 ,27.7 
2003/9/2,15:35:00,27.7 ,78.3 ,25.2 ,20.9 ,27.8 
2003/9/2,15:50:00,27.8 ,78.3 ,25.3 ,20.9 ,27.9 
2003/9/2,16:05:00,27.8 ,78.3 ,25.3 ,20.7 ,28.0 
2003/9/2,16:20:00,27.8 ,78.1 ,25.4 ,20.8 ,28.0 
2003/9/2,16:35:00,27.8 ,78.2 ,25.5 ,20.7 ,28.0 
2003/9/2,16:50:00,27.8 ,78.2 ,25.5 ,20.7 ,27.9 
2003/9/2,17:05:00,27.8 ,78.6 ,25.6 ,20.9 ,28.0 
2003/9/2,17:20:00,27.7 ,78.6 ,25.6 ,20.9 ,27.9 
2003/9/2,17:35:00,27.6 ,78.8 ,25.6 ,20.9 ,27.9 
2003/9/2,17:50:00,27.5 ,79.8 ,25.7 ,20.9 ,27.9 
2003/9/2,18:05:00,27.4 ,82.1 ,25.7 ,21.1 ,27.8 
2003/9/2,18:20:00,27.2 ,83.6 ,25.7 ,21.1 ,27.7 
2003/9/2,18:35:00,27.0 ,84.0 ,25.7 ,21.2 ,27.5 
2003/9/2,18:50:00,27.1 ,83.9 ,25.8 ,21.2 ,27.5 
2003/9/2,19:05:00,27.0 ,82.9 ,25.8 ,21.1 ,28.7 
2003/9/2,19:20:00,26.9 ,82.8 ,25.8 ,21.2 ,31.5 
2003/9/2,19:35:00,27.0 ,82.6 ,25.8 ,21.4 ,32.6 
2003/9/2,19:50:00,26.8 ,84.2 ,25.8 ,21.4 ,29.8 
2003/9/2,20:05:00,27.1 ,82.6 ,25.8 ,21.5 ,29.2 
2003/9/2,20:20:00,27.3 ,81.5 ,25.8 ,21.5 ,29.3 
2003/9/2,20:35:00,27.3 ,81.1 ,25.8 ,21.6 ,29.0 
2003/9/2,20:50:00,27.3 ,80.9 ,25.8 ,21.6 ,28.7 
2003/9/2,21:05:00,27.3 ,81.3 ,25.9 ,21.7 ,28.6 
2003/9/2,21:20:00,27.3 ,81.3 ,25.9 ,21.7 ,28.4 
2003/9/2,21:35:00,27.2 ,80.6 ,25.9 ,21.7 ,28.2 
2003/9/2,21:50:00,27.2 ,80.5 ,25.9 ,21.8 ,28.1 
2003/9/2,22:05:00,27.2 ,81.2 ,25.9 ,21.8 ,28.0 
2003/9/2,22:20:00,27.1 ,81.9 ,25.9 ,21.9 ,27.9 
2003/9/2,22:35:00,26.8 ,82.3 ,25.9 ,21.9 ,27.8 
2003/9/2,22:50:00,26.9 ,82.6 ,25.8 ,21.9 ,27.6 
2003/9/2,23:05:00,27.1 ,81.7 ,25.8 ,21.9 ,27.5 
2003/9/2,23:20:00,27.1 ,81.5 ,25.8 ,21.8 ,27.5 
2003/9/2,23:35:00,27.1 ,81.5 ,25.8 ,21.8 ,27.5 
2003/9/2,23:50:00,27.1 ,81.3 ,25.8 ,22.1 ,27.5 
2003/9/3,0:05:00,27.1 ,81.3 ,25.8 ,22.0 ,27.5 
2003/9/3,0:20:00,27.1 ,81.4 ,25.9 ,22.1 ,27.6 
2003/9/3,0:35:00,27.1 ,81.5 ,25.9 ,22.0 ,27.6 
2003/9/3,0:50:00,27.1 ,81.4 ,25.9 ,22.1 ,27.5 
2003/9/3,1:05:00,27.0 ,81.4 ,25.9 ,22.2 ,27.5 
2003/9/3,1:20:00,27.0 ,81.3 ,25.9 ,22.2 ,27.5 
2003/9/3,1:35:00,27.0 ,81.3 ,25.9 ,22.2 ,27.5 
2003/9/3,1:50:00,26.9 ,81.5 ,25.9 ,22.3 ,27.5 
2003/9/3,2:05:00,26.9 ,81.5 ,25.9 ,22.3 ,27.4 
2003/9/3,2:20:00,26.9 ,81.6 ,25.9 ,22.2 ,27.3 
2003/9/3,2:35:00,26.9 ,81.5 ,25.9 ,22.3 ,27.3 
2003/9/3,2:50:00,26.9 ,81.4 ,25.9 ,22.4 ,27.3 
2003/9/3,3:05:00,26.8 ,81.5 ,25.9 ,22.5 ,27.3 
2003/9/3,3:20:00,26.8 ,81.5 ,25.8 ,22.5 ,27.2 
2003/9/3,3:35:00,26.8 ,81.5 ,25.8 ,22.7 ,27.2 
2003/9/3,3:50:00,26.8 ,81.6 ,25.8 ,22.6 ,27.1 
2003/9/3,4:05:00,26.7 ,81.6 ,25.8 ,22.7 ,27.1 
2003/9/3,4:20:00,26.7 ,81.6 ,25.8 ,22.7 ,27.1 
2003/9/3,4:35:00,26.7 ,81.6 ,25.8 ,22.7 ,27.1 
2003/9/3,4:50:00,26.7 ,81.7 ,25.8 ,22.7 ,27.1 
2003/9/3,5:05:00,26.6 ,81.6 ,25.8 ,22.8 ,27.0 
2003/9/3,5:20:00,26.6 ,81.5 ,25.8 ,22.8 ,27.0 
2003/9/3,5:35:00,26.6 ,81.5 ,25.8 ,23.0 ,27.0 
2003/9/3,5:50:00,26.6 ,81.4 ,25.7 ,21.9 ,27.1 
2003/9/3,6:05:00,26.6 ,81.6 ,25.7 ,22.0 ,27.2 
2003/9/3,6:20:00,26.6 ,81.5 ,25.7 ,22.1 ,27.2 
2003/9/3,6:35:00,26.6 ,81.3 ,25.7 ,22.1 ,27.2 
2003/9/3,6:50:00,26.7 ,81.8 ,25.7 ,22.2 ,27.2 
2003/9/3,7:05:00,26.6 ,81.5 ,25.7 ,22.2 ,27.2 
2003/9/3,7:20:00,26.6 ,81.7 ,25.7 ,22.2 ,27.1 
2003/9/3,7:35:00,26.7 ,81.7 ,25.7 ,22.3 ,27.1 
2003/9/3,7:50:00,26.7 ,82.1 ,25.7 ,22.3 ,27.1 
2003/9/3,8:05:00,26.7 ,83.1 ,25.7 ,21.8 ,27.3 
2003/9/3,8:20:00,26.7 ,83.9 ,25.7 ,21.9 ,27.3 
2003/9/3,8:35:00,26.6 ,84.5 ,25.7 ,21.9 ,27.2 
2003/9/3,8:50:00,26.5 ,85.2 ,25.7 ,21.9 ,27.1 
2003/9/3,9:05:00,26.5 ,86.9 ,25.7 ,22.1 ,27.0 
2003/9/3,9:20:00,26.4 ,86.5 ,25.7 ,22.1 ,27.0 
2003/9/3,9:35:00,26.3 ,86.0 ,25.7 ,22.1 ,27.0 
2003/9/3,9:50:00,26.5 ,85.2 ,25.7 ,22.2 ,27.0 
2003/9/3,10:05:00,26.4 ,85.3 ,25.7 ,22.2 ,26.9 
2003/9/3,10:20:00,26.1 ,87.7 ,25.7 ,22.3 ,26.9 
2003/9/3,10:35:00,26.1 ,88.1 ,25.8 ,22.3 ,26.8 
2003/9/3,10:50:00,26.0 ,88.6 ,25.7 ,22.6 ,26.7 
2003/9/3,11:05:00,26.2 ,86.9 ,25.8 ,22.6 ,26.7 
2003/9/3,11:20:00,26.4 ,86.4 ,25.7 ,22.2 ,26.7 
2003/9/3,11:35:00,26.6 ,85.1 ,25.7 ,22.2 ,26.8 
2003/9/3,11:50:00,26.6 ,84.5 ,25.8 ,22.2 ,26.9 
2003/9/3,12:05:00,26.7 ,84.0 ,25.8 ,22.2 ,26.9 
2003/9/3,12:20:00,26.7 ,83.6 ,25.8 ,22.3 ,27.0 
2003/9/3,12:35:00,26.8 ,83.2 ,25.8 ,22.4 ,27.0 
2003/9/3,12:50:00,26.8 ,83.0 ,25.8 ,22.4 ,27.0 
2003/9/3,13:05:00,26.8 ,82.9 ,25.9 ,22.4 ,27.1 
2003/9/3,13:20:00,26.8 ,82.7 ,25.9 ,22.4 ,27.1 
2003/9/3,13:35:00,26.8 ,82.5 ,25.9 ,22.5 ,27.1 
2003/9/3,13:50:00,26.7 ,82.5 ,25.9 ,22.5 ,27.0 
2003/9/3,14:05:00,26.7 ,82.4 ,25.9 ,22.6 ,27.0 
2003/9/3,14:20:00,26.7 ,82.2 ,25.9 ,22.6 ,27.0 
2003/9/3,14:35:00,26.8 ,81.8 ,25.9 ,22.7 ,27.0 
2003/9/3,14:50:00,26.8 ,81.5 ,25.9 ,22.7 ,27.0 
2003/9/3,15:05:00,26.8 ,81.6 ,25.9 ,22.7 ,27.1 
2003/9/3,15:20:00,26.8 ,81.5 ,25.9 ,22.7 ,27.1 
2003/9/3,15:35:00,26.7 ,81.4 ,25.9 ,22.8 ,27.0 
2003/9/3,15:50:00,26.7 ,81.3 ,25.9 ,22.8 ,27.0 
2003/9/3,16:05:00,26.7 ,81.1 ,25.9 ,22.9 ,27.0 
2003/9/3,16:20:00,26.7 ,81.2 ,25.9 ,22.9 ,27.0 
2003/9/3,16:35:00,26.6 ,81.1 ,25.9 ,22.9 ,26.9 
2003/9/3,16:50:00,26.6 ,81.0 ,25.9 ,23.0 ,26.9 
2003/9/3,17:05:00,26.6 ,80.9 ,25.9 ,23.0 ,26.9 
2003/9/3,17:20:00,26.6 ,80.8 ,25.8 ,23.0 ,26.9 
2003/9/3,17:35:00,26.5 ,80.7 ,25.8 ,23.0 ,26.9 
2003/9/3,17:50:00,26.5 ,80.6 ,25.8 ,23.1 ,26.9 
2003/9/3,18:05:00,26.4 ,80.3 ,25.8 ,23.2 ,26.8 
2003/9/3,18:20:00,26.4 ,80.3 ,25.8 ,23.2 ,26.7 
2003/9/3,18:35:00,26.3 ,79.8 ,25.7 ,23.2 ,26.6 
2003/9/3,18:50:00,26.2 ,79.6 ,25.7 ,23.2 ,26.6 
2003/9/3,19:05:00,26.2 ,79.5 ,25.7 ,23.3 ,26.6 
2003/9/3,19:20:00,26.2 ,79.4 ,25.7 ,23.3 ,26.5 
2003/9/3,19:35:00,26.1 ,79.1 ,25.6 ,23.4 ,26.5 
2003/9/3,19:50:00,26.0 ,79.1 ,25.6 ,23.4 ,26.4 
2003/9/3,20:05:00,26.0 ,79.1 ,25.6 ,23.4 ,26.4 
2003/9/3,20:20:00,26.0 ,79.0 ,25.6 ,23.4 ,26.3 
2003/9/3,20:35:00,25.9 ,79.0 ,25.5 ,23.4 ,26.3 
2003/9/3,20:50:00,25.9 ,79.0 ,25.5 ,23.4 ,26.2 
2003/9/3,21:05:00,25.8 ,79.0 ,25.6 ,23.5 ,26.2 
2003/9/3,21:20:00,25.8 ,79.0 ,25.5 ,23.5 ,26.1 
2003/9/3,21:35:00,25.7 ,78.9 ,25.4 ,23.5 ,26.1 
2003/9/3,21:50:00,25.7 ,78.9 ,25.4 ,23.5 ,26.1 
2003/9/3,22:05:00,25.6 ,78.9 ,25.3 ,23.5 ,26.0 
2003/9/3,22:20:00,25.6 ,78.9 ,25.3 ,23.6 ,26.0 
2003/9/3,22:35:00,25.5 ,79.2 ,25.3 ,23.6 ,25.9 
2003/9/3,22:50:00,25.7 ,78.6 ,25.2 ,23.2 ,25.9 
2003/9/3,23:05:00,25.5 ,78.9 ,25.2 ,22.7 ,25.9 
2003/9/3,23:20:00,25.2 ,79.9 ,25.1 ,22.7 ,25.7 
2003/9/3,23:35:00,25.0 ,79.8 ,24.9 ,22.8 ,25.6 
2003/9/3,23:50:00,24.8 ,80.9 ,24.8 ,22.8 ,25.5 
2003/9/4,0:05:00,24.7 ,80.8 ,24.8 ,22.8 ,25.4 
2003/9/4,0:20:00,24.6 ,81.0 ,24.7 ,22.9 ,25.3 
2003/9/4,0:35:00,24.8 ,80.3 ,24.6 ,22.9 ,25.2 
2003/9/4,0:50:00,25.0 ,79.9 ,24.7 ,22.9 ,25.3 
2003/9/4,1:05:00,25.0 ,79.9 ,24.7 ,22.9 ,25.4 
2003/9/4,1:20:00,25.1 ,80.1 ,24.7 ,22.9 ,25.4 
2003/9/4,1:35:00,25.1 ,80.1 ,24.7 ,22.9 ,25.4 
2003/9/4,1:50:00,25.1 ,80.1 ,24.7 ,23.0 ,25.4 
2003/9/4,2:05:00,25.0 ,80.2 ,24.7 ,23.0 ,25.4 
2003/9/4,2:20:00,25.1 ,80.2 ,24.7 ,23.0 ,25.4 
2003/9/4,2:35:00,25.1 ,80.3 ,24.7 ,23.0 ,25.4 
2003/9/4,2:50:00,25.1 ,80.4 ,24.7 ,23.0 ,25.4 
2003/9/4,3:05:00,25.0 ,80.3 ,24.7 ,23.0 ,25.3 
2003/9/4,3:20:00,25.0 ,80.3 ,24.6 ,23.0 ,25.3 
2003/9/4,3:35:00,25.0 ,80.3 ,24.6 ,23.1 ,25.3 
2003/9/4,3:50:00,25.0 ,80.3 ,24.6 ,23.1 ,25.3 
2003/9/4,4:05:00,25.0 ,80.3 ,24.6 ,23.1 ,25.3 
2003/9/4,4:20:00,25.0 ,80.3 ,24.6 ,23.1 ,25.3 
2003/9/4,4:35:00,25.0 ,80.2 ,24.6 ,23.1 ,25.3 
2003/9/4,4:50:00,25.0 ,80.2 ,24.6 ,23.1 ,25.3 
2003/9/4,5:05:00,25.0 ,80.2 ,24.6 ,23.1 ,25.3 
2003/9/4,5:20:00,24.9 ,80.3 ,24.5 ,23.1 ,25.2 
2003/9/4,5:35:00,24.9 ,80.3 ,24.5 ,23.2 ,25.2 
2003/9/4,5:50:00,24.9 ,80.2 ,24.5 ,23.2 ,25.2 
2003/9/4,6:05:00,24.9 ,80.3 ,24.5 ,23.2 ,25.3 
2003/9/4,6:20:00,24.9 ,80.4 ,24.5 ,23.2 ,25.3 
2003/9/4,6:35:00,25.1 ,79.8 ,24.5 ,23.2 ,25.3 
2003/9/4,6:50:00,25.1 ,80.2 ,24.5 ,22.5 ,25.4 
2003/9/4,7:05:00,25.1 ,79.6 ,24.5 ,22.6 ,25.3 
2003/9/4,7:20:00,25.1 ,80.3 ,24.5 ,22.7 ,25.4 
2003/9/4,7:35:00,25.1 ,79.3 ,24.5 ,22.7 ,25.3 
2003/9/4,7:50:00,25.0 ,80.4 ,24.5 ,22.3 ,25.3 
2003/9/4,8:05:00,24.9 ,79.2 ,24.5 ,22.3 ,25.4 
2003/9/4,8:20:00,24.4 ,80.3 ,24.5 ,22.3 ,25.3 
2003/9/4,8:35:00,24.6 ,79.7 ,24.4 ,22.2 ,25.3 
2003/9/4,8:50:00,24.7 ,76.2 ,24.4 ,22.2 ,25.3 
2003/9/4,9:05:00,25.3 ,74.9 ,24.4 ,22.3 ,25.4 
2003/9/4,9:20:00,24.7 ,74.7 ,24.4 ,22.3 ,25.6 
2003/9/4,9:35:00,25.1 ,74.4 ,24.4 ,22.2 ,25.6 
2003/9/4,9:50:00,25.2 ,69.2 ,24.4 ,22.2 ,25.6 
2003/9/4,10:05:00,25.5 ,66.2 ,24.3 ,22.2 ,25.8 
2003/9/4,10:20:00,25.6 ,63.2 ,24.4 ,22.3 ,25.9 
2003/9/4,10:35:00,25.7 ,63.2 ,24.3 ,22.3 ,26.0 
2003/9/4,10:50:00,25.8 ,64.1 ,24.3 ,22.3 ,26.0 
2003/9/4,11:05:00,26.0 ,63.2 ,24.3 ,22.3 ,26.1 
2003/9/4,11:20:00,26.0 ,63.4 ,24.4 ,22.3 ,26.2 
2003/9/4,11:35:00,26.2 ,62.0 ,24.4 ,22.4 ,26.3 
2003/9/4,11:50:00,26.2 ,63.4 ,24.5 ,22.4 ,26.3 
2003/9/4,12:05:00,26.3 ,58.6 ,24.5 ,22.4 ,26.4 
2003/9/4,12:20:00,26.3 ,58.7 ,24.5 ,22.4 ,26.4 
2003/9/4,12:35:00,26.3 ,61.4 ,24.5 ,22.4 ,26.4 
2003/9/4,12:50:00,26.4 ,60.3 ,24.5 ,22.5 ,26.5 
2003/9/4,13:05:00,26.6 ,56.9 ,24.6 ,22.2 ,26.6 
2003/9/4,13:20:00,26.7 ,55.1 ,24.9 ,22.2 ,26.6 
2003/9/4,13:35:00,26.5 ,53.9 ,25.2 ,22.2 ,26.6 
2003/9/4,13:50:00,26.6 ,53.5 ,25.4 ,22.2 ,26.6 
2003/9/4,14:05:00,26.7 ,62.6 ,25.6 ,22.3 ,26.7 
2003/9/4,14:20:00,26.6 ,64.2 ,25.8 ,22.3 ,26.7 
2003/9/4,14:35:00,26.5 ,62.3 ,25.9 ,22.3 ,26.7 
2003/9/4,14:50:00,26.4 ,63.5 ,25.9 ,22.4 ,26.7 
2003/9/4,15:05:00,26.5 ,65.1 ,25.9 ,22.4 ,26.6 
2003/9/4,15:20:00,26.4 ,66.3 ,25.9 ,22.4 ,26.6 
2003/9/4,15:35:00,26.4 ,65.4 ,26.0 ,22.5 ,26.6 
2003/9/4,15:50:00,26.3 ,63.4 ,25.9 ,22.1 ,26.6 
2003/9/4,16:05:00,26.1 ,64.7 ,25.9 ,22.2 ,26.5 
2003/9/4,16:20:00,25.9 ,65.6 ,25.8 ,22.2 ,26.5 
2003/9/4,16:35:00,25.8 ,65.1 ,25.7 ,22.2 ,26.5 
2003/9/4,16:50:00,25.6 ,63.2 ,25.6 ,22.3 ,26.4 
2003/9/4,17:05:00,25.4 ,64.4 ,25.6 ,22.3 ,26.2 
2003/9/4,17:20:00,25.4 ,66.7 ,25.5 ,22.4 ,26.1 
2003/9/4,17:35:00,25.1 ,68.2 ,25.5 ,22.4 ,26.0 
2003/9/4,17:50:00,24.9 ,68.7 ,25.4 ,22.4 ,26.0 
2003/9/4,18:05:00,24.9 ,69.2 ,25.4 ,22.4 ,25.9 
2003/9/4,18:20:00,24.7 ,70.7 ,25.3 ,22.5 ,25.7 
2003/9/4,18:35:00,24.5 ,71.9 ,25.2 ,22.5 ,25.5 
2003/9/4,18:50:00,24.6 ,72.0 ,25.1 ,22.5 ,25.5 
2003/9/4,19:05:00,24.5 ,72.7 ,25.1 ,22.5 ,25.5 
2003/9/4,19:20:00,24.4 ,73.2 ,25.0 ,22.6 ,25.5 
2003/9/4,19:35:00,24.3 ,73.8 ,24.9 ,22.6 ,26.3 
2003/9/4,19:50:00,24.3 ,74.2 ,24.8 ,22.6 ,26.7 
2003/9/4,20:05:00,24.4 ,73.8 ,24.7 ,22.6 ,26.9 
2003/9/4,20:20:00,24.5 ,73.5 ,24.6 ,22.6 ,26.7 
2003/9/4,20:35:00,24.3 ,74.1 ,24.5 ,22.6 ,26.2 
2003/9/4,20:50:00,24.3 ,73.6 ,24.5 ,22.6 ,25.8 
2003/9/4,21:05:00,24.3 ,73.5 ,24.4 ,22.6 ,25.5 
2003/9/4,21:20:00,24.0 ,74.0 ,24.3 ,22.7 ,26.1 
2003/9/4,21:35:00,23.9 ,73.7 ,24.2 ,22.7 ,25.9 
2003/9/4,21:50:00,23.7 ,74.2 ,24.1 ,22.7 ,25.3 
2003/9/4,22:05:00,24.1 ,75.1 ,24.0 ,22.7 ,25.0 
2003/9/4,22:20:00,24.4 ,74.8 ,24.1 ,22.7 ,25.1 
2003/9/4,22:35:00,24.5 ,74.9 ,24.2 ,22.7 ,25.2 
2003/9/4,22:50:00,24.6 ,74.7 ,24.2 ,22.7 ,25.3 
2003/9/4,23:05:00,24.6 ,74.5 ,24.2 ,22.7 ,25.2 
2003/9/4,23:20:00,24.6 ,74.2 ,24.2 ,22.7 ,25.2 
2003/9/4,23:35:00,24.7 ,74.3 ,24.2 ,22.7 ,25.2 
2003/9/4,23:50:00,24.7 ,74.4 ,24.2 ,22.8 ,25.1 
2003/9/5,0:05:00,24.6 ,74.3 ,24.2 ,22.8 ,25.1 
2003/9/5,0:20:00,24.6 ,74.1 ,24.2 ,22.8 ,25.0 
2003/9/5,0:35:00,24.6 ,73.9 ,24.2 ,22.8 ,25.0 
2003/9/5,0:50:00,24.6 ,74.5 ,24.2 ,22.8 ,25.0 
2003/9/5,1:05:00,24.6 ,74.7 ,24.2 ,22.5 ,25.0 
2003/9/5,1:20:00,24.6 ,74.5 ,24.2 ,22.5 ,25.0 
2003/9/5,1:35:00,24.6 ,74.3 ,24.2 ,22.6 ,25.0 
2003/9/5,1:50:00,24.5 ,74.2 ,24.2 ,22.6 ,25.0 
2003/9/5,2:05:00,24.5 ,74.1 ,24.2 ,22.6 ,24.9 
2003/9/5,2:20:00,24.5 ,73.9 ,24.2 ,22.6 ,24.9 
2003/9/5,2:35:00,24.5 ,73.9 ,24.2 ,22.6 ,24.9 
2003/9/5,2:50:00,24.4 ,73.8 ,24.2 ,22.6 ,24.8 
2003/9/5,3:05:00,24.4 ,73.7 ,24.1 ,22.6 ,24.8 
2003/9/5,3:20:00,24.4 ,73.8 ,24.1 ,22.6 ,24.7 
2003/9/5,3:35:00,24.3 ,73.7 ,24.1 ,22.6 ,24.7 
2003/9/5,3:50:00,24.3 ,73.7 ,24.1 ,22.7 ,24.7 
2003/9/5,4:05:00,24.3 ,73.7 ,24.1 ,22.7 ,24.7 
2003/9/5,4:20:00,24.2 ,73.5 ,24.1 ,22.7 ,24.7 
2003/9/5,4:35:00,24.2 ,73.6 ,24.0 ,22.7 ,24.6 
2003/9/5,4:50:00,24.2 ,73.5 ,24.0 ,22.7 ,24.6 
2003/9/5,5:05:00,24.1 ,73.5 ,24.0 ,22.7 ,24.5 
2003/9/5,5:20:00,24.1 ,73.5 ,24.0 ,22.7 ,24.5 
2003/9/5,5:35:00,24.1 ,73.4 ,24.0 ,22.7 ,24.5 
2003/9/5,5:50:00,24.1 ,73.4 ,24.0 ,22.7 ,24.4 
2003/9/5,6:05:00,24.2 ,73.3 ,23.9 ,22.8 ,24.4 
2003/9/5,6:20:00,24.2 ,72.9 ,23.9 ,22.8 ,24.4 
2003/9/5,6:35:00,24.4 ,72.8 ,23.9 ,22.4 ,24.5 
2003/9/5,6:50:00,24.8 ,71.2 ,23.9 ,22.5 ,24.5 
2003/9/5,7:05:00,24.8 ,71.8 ,23.9 ,22.5 ,24.6 
2003/9/5,7:20:00,25.3 ,70.3 ,23.9 ,22.5 ,24.8 
2003/9/5,7:35:00,25.3 ,71.1 ,24.0 ,22.5 ,25.1 
2003/9/5,7:50:00,25.5 ,70.9 ,24.0 ,22.5 ,25.3 
2003/9/5,8:05:00,25.7 ,71.0 ,24.0 ,22.5 ,25.4 
2003/9/5,8:20:00,25.8 ,70.7 ,24.1 ,22.4 ,25.5 
2003/9/5,8:35:00,25.8 ,70.6 ,24.1 ,22.4 ,25.7 
2003/9/5,8:50:00,25.9 ,70.8 ,24.1 ,22.5 ,25.8 
2003/9/5,9:05:00,26.0 ,70.9 ,24.2 ,22.5 ,25.9 
2003/9/5,9:20:00,26.1 ,70.8 ,24.2 ,22.5 ,26.0 
2003/9/5,9:35:00,26.3 ,69.2 ,24.3 ,22.6 ,26.2 
2003/9/5,9:50:00,26.4 ,67.4 ,24.3 ,22.6 ,26.3 
2003/9/5,10:05:00,26.5 ,67.5 ,24.4 ,22.6 ,26.4 
2003/9/5,10:20:00,26.6 ,66.7 ,24.4 ,22.4 ,26.6 
2003/9/5,10:35:00,26.7 ,65.2 ,24.4 ,22.4 ,26.6 
2003/9/5,10:50:00,26.9 ,62.9 ,24.5 ,22.4 ,26.7 
2003/9/5,11:05:00,26.9 ,62.5 ,24.5 ,22.4 ,26.8 
2003/9/5,11:20:00,27.0 ,62.0 ,24.5 ,22.5 ,26.9 
2003/9/5,11:35:00,27.0 ,62.7 ,24.6 ,22.5 ,27.0 
2003/9/5,11:50:00,27.1 ,63.1 ,24.6 ,22.5 ,27.0 
2003/9/5,12:05:00,27.1 ,63.8 ,24.7 ,22.5 ,27.1 
2003/9/5,12:20:00,27.2 ,64.0 ,24.7 ,22.6 ,27.2 
2003/9/5,12:35:00,27.2 ,64.8 ,24.7 ,22.6 ,27.2 
2003/9/5,12:50:00,27.3 ,65.1 ,24.8 ,22.6 ,27.2 
2003/9/5,13:05:00,27.3 ,65.5 ,24.8 ,22.6 ,27.3 
2003/9/5,13:20:00,27.4 ,65.2 ,24.9 ,22.7 ,27.3 
2003/9/5,13:35:00,27.5 ,65.1 ,24.9 ,22.7 ,27.3 
2003/9/5,13:50:00,27.5 ,65.6 ,25.0 ,22.7 ,27.4 
2003/9/5,14:05:00,27.6 ,65.5 ,25.0 ,22.7 ,27.5 
2003/9/5,14:20:00,27.5 ,66.2 ,25.1 ,22.8 ,27.5 
2003/9/5,14:35:00,27.6 ,65.7 ,25.1 ,22.8 ,27.5 
2003/9/5,14:50:00,27.6 ,65.2 ,25.2 ,22.8 ,27.6 
2003/9/5,15:05:00,27.6 ,65.0 ,25.2 ,22.9 ,27.6 
2003/9/5,15:20:00,27.6 ,65.6 ,25.3 ,22.9 ,27.6 
2003/9/5,15:35:00,27.6 ,65.2 ,25.3 ,22.9 ,27.6 
2003/9/5,15:50:00,27.6 ,65.7 ,25.4 ,23.0 ,27.6 
2003/9/5,16:05:00,27.6 ,65.2 ,25.4 ,23.0 ,27.6 
2003/9/5,16:20:00,27.5 ,65.8 ,25.5 ,23.0 ,27.6 
2003/9/5,16:35:00,27.5 ,65.4 ,25.5 ,23.1 ,27.6 
2003/9/5,16:50:00,27.4 ,67.8 ,25.6 ,23.1 ,27.5 
2003/9/5,17:05:00,27.3 ,69.3 ,25.6 ,23.1 ,27.5 
2003/9/5,17:20:00,27.1 ,70.3 ,25.6 ,23.2 ,27.4 
2003/9/5,17:35:00,27.0 ,70.2 ,25.6 ,23.2 ,27.3 
2003/9/5,17:50:00,27.0 ,70.0 ,25.6 ,23.2 ,27.3 
2003/9/5,18:05:00,26.9 ,69.5 ,25.6 ,23.2 ,27.2 
2003/9/5,18:20:00,26.7 ,69.0 ,25.6 ,23.3 ,27.1 
2003/9/5,18:35:00,26.6 ,68.5 ,25.6 ,23.3 ,27.0 
2003/9/5,18:50:00,26.5 ,67.7 ,25.6 ,23.3 ,26.8 
2003/9/5,19:05:00,26.4 ,67.6 ,25.6 ,23.4 ,26.8 
2003/9/5,19:20:00,26.4 ,68.3 ,25.6 ,23.4 ,26.7 
2003/9/5,19:35:00,26.6 ,68.3 ,25.5 ,23.4 ,27.2 
2003/9/5,19:50:00,26.7 ,68.4 ,25.5 ,22.9 ,28.4 
2003/9/5,20:05:00,26.7 ,69.0 ,25.5 ,22.9 ,28.6 
2003/9/5,20:20:00,26.6 ,69.8 ,25.5 ,22.9 ,28.5 
2003/9/5,20:35:00,26.5 ,70.0 ,25.5 ,23.0 ,28.1 
2003/9/5,20:50:00,26.6 ,70.0 ,25.5 ,23.0 ,27.7 
2003/9/5,21:05:00,26.4 ,71.1 ,25.5 ,23.0 ,27.6 
2003/9/5,21:20:00,26.4 ,70.8 ,25.5 ,23.0 ,27.4 
2003/9/5,21:35:00,26.4 ,71.1 ,25.5 ,23.1 ,27.3 
2003/9/5,21:50:00,26.4 ,71.3 ,25.5 ,23.1 ,27.1 
2003/9/5,22:05:00,26.3 ,71.7 ,25.4 ,23.1 ,27.1 
2003/9/5,22:20:00,26.3 ,71.6 ,25.4 ,22.9 ,26.9 
2003/9/5,22:35:00,26.4 ,70.3 ,25.4 ,22.9 ,27.0 
2003/9/5,22:50:00,26.5 ,70.7 ,25.4 ,23.0 ,27.0 
2003/9/5,23:05:00,26.5 ,70.5 ,25.4 ,23.0 ,27.1 
2003/9/5,23:20:00,26.3 ,71.0 ,25.4 ,23.0 ,27.0 
2003/9/5,23:35:00,26.2 ,71.4 ,25.3 ,23.1 ,26.8 
2003/9/5,23:50:00,26.4 ,70.4 ,25.4 ,22.8 ,26.8 
2003/9/6,0:05:00,26.4 ,70.8 ,25.4 ,23.0 ,26.8 
2003/9/6,0:20:00,26.4 ,71.1 ,25.4 ,23.0 ,26.8 
2003/9/6,0:35:00,26.4 ,71.1 ,25.4 ,23.1 ,26.8 
2003/9/6,0:50:00,26.4 ,70.7 ,25.4 ,23.1 ,26.8 
2003/9/6,1:05:00,26.5 ,71.4 ,25.4 ,23.1 ,26.9 
2003/9/6,1:20:00,26.4 ,71.4 ,25.4 ,23.2 ,26.9 
2003/9/6,1:35:00,26.4 ,71.1 ,25.4 ,23.2 ,26.8 
2003/9/6,1:50:00,26.4 ,71.1 ,25.4 ,23.2 ,26.8 
2003/9/6,2:05:00,26.4 ,70.9 ,25.4 ,23.2 ,26.8 
2003/9/6,2:20:00,26.3 ,71.3 ,25.4 ,23.2 ,26.8 
2003/9/6,2:35:00,26.3 ,71.2 ,25.4 ,23.3 ,26.7 
2003/9/6,2:50:00,26.3 ,71.3 ,25.4 ,23.3 ,26.7 
2003/9/6,3:05:00,26.3 ,71.3 ,25.4 ,23.3 ,26.7 